Location: Brachbach
(49.1847°N, 9.7240°E)
Time: 06:43:49
(UTC+00:00)

PCSat - Pass Details

Date: 20 March 2026
Orbit: 780 x 790 km, 67.1° (Epoch: 13 April)

Event Time Altitude Azimuth Distance (km) Brightness Sun altitude
Exits shadow 22:58:58 20° 341° (NNW) 1,781 11.9 -40.3°
Drops below altitude 10° 23:02:14 10° 18° (NNE) 2,364 12.6 -40.4°
Sets 23:05:18 0° 35° (NE) 3,297 13.3 -40.4°
